FW7772 Weather Reports


Display with metric or nautical units.
time (UTC)temp
F
wind
direction
speed
MPH
gust
MPH
rain 1hr
in
rain 24hr
in
rain mn
in
humidity
%
barometer
mb
20260507163331 55 293 7.0 12.0 0.00 0.00 0.00 19 1017.4
20260507162321 55 268 3.0 9.0 0.00 0.00 0.00 18 1017.3
20260507161319 55 325 6.0 13.0 0.00 0.00 0.00 22 1017.3
20260507160313 53 317 7.0 11.0 0.00 0.00 0.00 21 1017.2
20260507155315 55 282 7.0 13.0 0.00 0.00 0.00 18 1017.2
20260507154314 55 278 8.0 13.0 0.00 0.00 0.00 19 1017.1
20260507153314 56 349 6.0 12.0 0.00 0.00 0.00 17 1017.2
20260507152313 56 337 7.0 12.0 0.00 0.00 0.00 15 1017.1
20260507151313 56 300 3.0 8.0 0.00 0.00 0.00 15 1017.0
20260507150315 56 188 5.0 12.0 0.00 0.00 0.00 15 1016.9
20260507145313 55 226 7.0 13.0 0.00 0.00 0.00 15 1017.0
20260507144801 56 295 8.0 16.0 0.00 0.00 0.00 17 1016.9
20260507143743 56 322 4.0 12.0 0.00 0.00 0.00 16 1016.8
20260507142307 56 247 5.0 12.0 0.00 0.00 0.00 16 1016.8
20260507141747 57 291 5.0 12.0 0.00 0.00 0.00 13 1016.7
20260507140308 55 263 7.0 15.0 0.00 0.00 0.00 15 1016.8
20260507135307 56 270 6.0 16.0 0.00 0.00 0.00 16 1016.7
20260507134744 56 221 5.0 11.0 0.00 0.00 0.00 17 1016.7
20260507133307 56 300 7.0 13.0 0.00 0.00 0.00 19 1016.8
20260507132309 54 235 7.0 15.0 0.00 0.00 0.00 21 1016.7
20260507131745 56 317 5.0 12.0 0.00 0.00 0.00 19 1016.6
20260507130307 53 274 9.0 15.0 0.00 0.00 0.00 20 1016.6
20260507125307 55 293 4.0 13.0 0.00 0.00 0.00 19 1016.5
20260507124307 55 257 7.0 13.0 0.00 0.00 0.00 14 1016.5
20260507123308 55 258 4.0 14.0 0.00 0.00 0.00 18 1016.5
20260507122308 54 345 8.0 14.0 0.00 0.00 0.00 17 1016.4
20260507121307 55 305 9.0 15.0 0.00 0.00 0.00 19 1016.4
20260507120308 57 290 4.0 16.0 0.00 0.00 0.00 19 1016.3
20260507120216 54 83 8.0 18.0 0.00 0.00 0.00 19 1016.5
20260507114304 54 305 9.0 16.0 0.00 0.00 0.00 19 1016.3
20260507114216 55 236 3.0 9.0 0.00 0.00 0.00 21 1016.3
20260507112307 55 212 6.0 11.0 0.00 0.00 0.00 16 1016.3
20260507111744 55 268 6.0 12.0 0.00 0.00 0.00 18 1016.4
20260507110312 54 192 9.0 16.0 0.00 0.00 0.00 16 1016.2
20260507105306 55 271 6.0 21.0 0.00 0.00 0.00 16 1016.0
20260507104303 54 270 5.0 15.0 0.00 0.00 0.00 17 1016.2
20260507103305 53 290 6.0 11.0 0.00 0.00 0.00 18 1016.2
20260507102307 53 327 10.0 15.0 0.00 0.00 0.00 22 1016.0
20260507101303 54 248 5.0 14.0 0.00 0.00 0.00 21 1016.0
20260507100741 54 289 7.0 17.0 0.00 0.00 0.00 21 1015.9
20260507095306 51 300 7.0 15.0 0.00 0.00 0.00 23 1015.9
20260507094303 52 226 3.0 9.0 0.00 0.00 0.00 23 1015.9
20260507093301 53 300 5.0 12.0 0.00 0.00 0.00 20 1015.9
20260507092302 52 316 7.0 14.0 0.00 0.00 0.00 24 1015.9
20260507091301 51 249 6.0 12.0 0.00 0.00 0.00 24 1016.0
20260507090301 50 276 8.0 15.0 0.00 0.00 0.00 25 1016.0
20260507085306 50 357 5.0 12.0 0.00 0.00 0.00 25 1015.9
20260507084302 50 300 8.0 12.0 0.00 0.00 0.00 26 1015.9
20260507083734 50 322 8.0 13.0 0.00 0.00 0.00 30 1015.8
20260507082746 50 289 7.0 13.0 0.00 0.00 0.00 30 1015.7
20260507081303 49 343 3.0 8.0 0.00 0.00 0.00 30 1015.7
20260507080301 49 305 5.0 10.0 0.00 0.00 0.00 32 1015.6
20260507075301 49 210 7.0 12.0 0.00 0.00 0.00 33 1015.4
20260507074751 49 339 4.0 10.0 0.00 0.00 0.00 36 1015.5
20260507073302 48 339 4.0 9.0 0.00 0.00 0.00 38 1015.3
20260507072758 47 21 3.0 7.0 0.00 0.00 0.00 39 1015.3
20260507071303 47 345 4.0 10.0 0.00 0.00 0.00 40 1015.4
20260507070301 46 338 5.0 11.0 0.00 0.00 0.00 42 1015.3
20260507065305 45 337 3.0 6.0 0.00 0.00 0.00 48 1015.2
20260507064302 44 310 4.0 8.0 0.00 0.00 0.00 48 1015.3
20260507063302 41 328 3.0 5.0 0.00 0.00 0.00 54 1015.2
20260507062301 40 314 1.0 4.0 0.00 0.00 0.00 55 1015.1
20260507061302 39 322 3.0 7.0 0.00 0.00 0.00 57 1015.2
20260507060745 38 354 2.0 6.0 0.00 0.00 0.00 59 1015.1
20260507055301 37 327 3.0 4.0 0.00 0.00 0.00 60 1015.1
20260507054743 37 310 3.0 5.0 0.00 0.00 0.00 60 1014.9
20260507053301 36 293 4.0 6.0 0.00 0.00 0.00 61 1014.9
20260507052305 35 300 5.0 8.0 0.00 0.00 0.00 63 1014.9
20260507051301 35 300 6.0 10.0 0.00 0.00 0.00 63 1014.8
20260507050301 34 315 8.0 10.0 0.00 0.00 0.00 64 1014.8
20260507045301 33 321 7.0 11.0 0.00 0.00 0.00 64 1014.8
20260507044301 33 305 5.0 8.0 0.00 0.00 0.00 65 1014.8
20260507043302 32 329 5.0 9.0 0.00 0.00 0.00 66 1014.7
20260507042301 31 310 5.0 9.0 0.00 0.00 0.00 68 1014.6
20260507041301 31 300 5.0 10.0 0.00 0.00 0.00 69 1014.6
20260507040738 30 295 5.0 8.0 0.00 0.00 0.00 71 1014.5
20260507035301 29 300 6.0 10.0 0.00 0.00 0.00 73 1014.4
20260507034301 28 291 4.0 8.0 0.00 0.00 0.00 75 1014.4
20260507033738 27 300 4.0 6.0 0.00 0.00 0.00 76 1014.3
20260507032301 27 279 3.0 5.0 0.00 0.00 0.00 76 1014.2
20260507031301 27 300 3.0 5.0 0.00 0.00 0.00 76 1014.2
20260507030302 27 281 2.0 4.0 0.00 0.00 0.00 76 1014.1
20260507025300 27 287 4.0 8.0 0.00 0.00 0.00 75 1014.2
20260507024300 28 336 4.0 8.0 0.00 0.00 0.00 75 1014.2
20260507023301 28 287 3.0 4.0 0.00 0.00 0.00 75 1014.1
20260507022306 28 329 0.0 2.0 0.00 0.00 0.00 74 1014.1
20260507021301 28 329 2.0 4.0 0.00 0.00 0.00 73 1014.0
20260507020301 28 289 4.0 8.0 0.00 0.00 0.00 73 1013.8
20260507015300 28 300 4.0 6.0 0.00 0.00 0.00 74 1013.9
20260507014300 28 291 4.0 6.0 0.00 0.00 0.00 74 1013.9
20260507013301 28 288 4.0 7.0 0.00 0.00 0.00 75 1013.8
20260507012301 28 300 3.0 4.0 0.00 0.00 0.00 74 1013.7
20260507011300 28 305 2.0 5.0 0.00 0.00 0.00 74 1013.7
20260507010748 29 300 0.0 1.0 0.00 0.00 0.00 73 1013.4
20260507005300 29 300 0.0 1.0 0.00 0.00 0.00 72 1013.4
20260507004300 30 300 0.0 2.0 0.00 0.00 0.00 70 1013.3
20260507003300 30 300 1.0 2.0 0.00 0.00 0.00 70 1013.2
20260507002301 31 300 2.0 3.0 0.00 0.00 0.00 70 1013.2
20260507001300 31 300 2.0 3.0 0.00 0.00 0.00 70 1013.0
20260507000300 32 300 2.0 3.0 0.00 0.00 0.00 68 1012.9
20260506235301 33 89 1.0 3.0 0.00 0.00 0.00 67 1012.9
20260506234301 33 89 2.0 5.0 0.00 0.00 0.00 65 1012.8
20260506233300 34 314 2.0 3.0 0.00 0.00 0.00 64 1012.8
20260506233218 34 280 4.0 8.0 0.00 0.00 0.00 64 1012.6
20260506231301 35 225 1.0 3.0 0.00 0.00 0.00 66 1012.5
20260506230301 35 327 2.0 4.0 0.00 0.00 0.00 61 1012.6
20260506225305 35 305 4.0 5.0 0.00 0.00 0.00 61 1012.5
20260506224301 36 300 4.0 5.0 0.00 0.00 0.00 63 1012.5
20260506223301 37 305 3.0 5.0 0.00 0.00 0.00 62 1012.5
20260506222301 37 253 1.0 2.0 0.00 0.00 0.00 61 1012.4
20260506221301 37 241 2.0 5.0 0.00 0.00 0.00 62 1012.5
20260506220303 38 259 2.0 4.0 0.00 0.00 0.00 61 1012.4
20260506220223 38 278 1.0 3.0 0.00 0.00 0.00 60 1012.3
20260506214302 38 270 2.0 4.0 0.00 0.00 0.00 59 1012.4
20260506213301 39 121 2.0 6.0 0.00 0.00 0.00 59 1012.0
20260506212752 39 338 2.0 5.0 0.00 0.00 0.00 55 1011.9
20260506211301 40 305 5.0 10.0 0.00 0.00 0.00 57 1011.8
20260506210301 40 15 2.0 5.0 0.00 0.00 0.00 54 1011.9
20260506205258 40 342 2.0 3.0 0.00 0.00 0.00 55 1011.9
20260506204258 41 342 1.0 3.0 0.00 0.00 0.00 52 1011.8
20260506203300 42 356 0.0 2.0 0.00 0.01 0.00 48 1011.8
20260506202259 42 356 1.0 3.0 0.00 0.01 0.00 48 1011.8
20260506201259 42 21 2.0 5.0 0.00 0.01 0.00 48 1011.9
20260506200301 43 358 3.0 8.0 0.00 0.01 0.00 48 1011.7
20260506195300 44 327 1.0 4.0 0.00 0.01 0.00 47 1011.5
20260506194257 45 239 1.0 2.0 0.00 0.01 0.00 45 1011.6
20260506193739 46 239 1.0 2.0 0.00 0.01 0.00 40 1011.4
20260506192257 46 239 2.0 4.0 0.00 0.01 0.00 39 1011.2
20260506191257 47 162 2.0 4.0 0.00 0.01 0.00 39 1011.2
20260506190257 47 226 3.0 10.0 0.00 0.01 0.00 35 1011.3
20260506185255 47 168 5.0 14.0 0.00 0.01 0.00 34 1011.2
20260506184255 47 283 9.0 22.0 0.00 0.01 0.00 34 1011.5
20260506183254 48 251 2.0 5.0 0.00 0.01 0.00 41 1011.2
20260506182253 48 305 1.0 3.0 0.00 0.01 0.00 38 1011.0
20260506181253 49 45 1.0 3.0 0.00 0.01 0.00 38 1010.9
20260506180250 49 341 1.0 7.0 0.00 0.01 0.00 34 1010.9
20260506175250 49 285 3.0 7.0 0.00 0.01 0.00 34 1010.9
20260506174726 49 295 5.0 8.0 0.00 0.01 0.00 33 1010.9
20260506173250 49 263 2.0 6.0 0.00 0.01 0.00 32 1010.7
20260506172250 50 241 4.0 9.0 0.00 0.01 0.00 31 1010.6
20260506171722 50 258 4.0 11.0 0.00 0.01 0.00 30 1010.5
20260506171230 50 245 2.0 6.0 0.00 0.01 0.00 31 1010.5
20260506165242 50 204 5.0 13.0 0.00 0.01 0.00 31 1010.5
20260506164726 50 224 4.0 11.0 0.00 0.01 0.00 30 1010.6